TimeEDT,TemperatureF,Dew PointF,Humidity,Sea Level PressureIn,VisibilityMPH,Wind Direction,Wind SpeedMPH,Gust SpeedMPH,PrecipitationIn,Events,Conditions,WindDirDegrees,DateUTC
12:51 AM,68.0,64.9,90,29.75,10.0,NW,9.2,18.4,0.00,,Mostly Cloudy,310,2012-10-16 04:51:00
1:02 AM,68.0,64.4,88,29.74,10.0,NW,10.4,18.4,N/A,,Mostly Cloudy,310,2012-10-16 05:02:00
1:16 AM,66.2,64.4,94,29.75,10.0,NW,9.2,18.4,N/A,,Scattered Clouds,310,2012-10-16 05:16:00
1:51 AM,66.0,60.1,81,29.75,10.0,NW,12.7,19.6,N/A,,Clear,320,2012-10-16 05:51:00
2:51 AM,64.9,61.0,87,29.75,10.0,Variable,6.9,23.0,N/A,,Partly Cloudy,0,2012-10-16 06:51:00
3:05 AM,64.4,59.0,83,29.76,10.0,North,12.7,21.9,N/A,,Mostly Cloudy,10,2012-10-16 07:05:00
3:12 AM,64.4,57.2,77,29.76,10.0,North,11.5,25.3,N/A,,Partly Cloudy,10,2012-10-16 07:12:00
3:51 AM,64.0,57.0,78,29.77,10.0,North,10.4,24.2,N/A,,Partly Cloudy,10,2012-10-16 07:51:00
4:51 AM,64.0,55.9,75,29.79,10.0,North,10.4,21.9,N/A,,Scattered Clouds,360,2012-10-16 08:51:00
4:59 AM,62.6,55.4,77,29.80,10.0,North,8.1,18.4,N/A,,Mostly Cloudy,360,2012-10-16 08:59:00
5:23 AM,62.6,55.4,77,29.81,10.0,North,8.1,-,N/A,,Scattered Clouds,350,2012-10-16 09:23:00
5:51 AM,62.1,54.0,75,29.82,10.0,North,8.1,-,N/A,,Clear,350,2012-10-16 09:51:00
6:51 AM,60.1,52.0,75,29.85,10.0,Variable,6.9,18.4,N/A,,Clear,0,2012-10-16 10:51:00
8:51 AM,62.1,52.0,70,29.89,10.0,North,8.1,17.3,N/A,,Clear,350,2012-10-16 12:51:00
9:51 AM,63.0,51.1,65,29.90,10.0,Variable,6.9,19.6,N/A,,Clear,0,2012-10-16 13:51:00
10:51 AM,64.0,50.0,60,29.90,10.0,North,8.1,-,N/A,,Clear,10,2012-10-16 14:51:00
11:51 AM,64.9,52.0,63,29.90,10.0,North,9.2,19.6,N/A,,Clear,10,2012-10-16 15:51:00
12:51 PM,66.0,51.1,59,29.88,10.0,Variable,6.9,-,N/A,,Partly Cloudy,0,2012-10-16 16:51:00
1:51 PM,66.0,50.0,56,29.86,10.0,North,10.4,19.6,N/A,,Partly Cloudy,10,2012-10-16 17:51:00
2:51 PM,64.9,50.0,58,29.86,10.0,NNE,9.2,-,N/A,,Clear,30,2012-10-16 18:51:00
3:51 PM,66.0,50.0,56,29.86,10.0,NNE,9.2,-,N/A,,Clear,20,2012-10-16 19:51:00
4:51 PM,64.9,50.0,58,29.87,10.0,NNE,8.1,-,N/A,,Clear,30,2012-10-16 20:51:00
5:51 PM,62.1,48.9,62,29.88,10.0,NE,8.1,-,N/A,,Clear,40,2012-10-16 21:51:00
6:51 PM,59.0,48.0,67,29.89,10.0,NE,5.8,-,N/A,,Clear,50,2012-10-16 22:51:00
7:51 PM,57.0,48.0,72,29.90,10.0,Variable,4.6,-,N/A,,Clear,0,2012-10-16 23:51:00
8:51 PM,57.0,48.0,72,29.92,10.0,ENE,4.6,-,N/A,,Clear,60,2012-10-17 00:51:00
9:51 PM,55.9,48.9,77,29.93,10.0,ENE,3.5,-,N/A,,Clear,60,2012-10-17 01:51:00
10:51 PM,55.9,48.9,77,29.93,10.0,ENE,4.6,-,N/A,,Clear,60,2012-10-17 02:51:00
11:51 PM,54.0,48.0,80,29.94,10.0,ENE,3.5,-,N/A,,Clear,60,2012-10-17 03:51:00